Year,Month,Day,Hour,Minute,Value (Times are PST for temperature in C)
2015,09,20,00,00,17.30
2015,09,20,00,01,17.30
2015,09,20,00,02,17.30
2015,09,20,00,03,17.40
2015,09,20,00,04,17.30
2015,09,20,00,05,17.30
2015,09,20,00,06,17.30
2015,09,20,00,07,17.30
2015,09,20,00,08,17.30
2015,09,20,00,09,17.30
2015,09,20,00,10,17.30
2015,09,20,00,11,17.30
2015,09,20,00,12,17.30
2015,09,20,00,13,17.30
2015,09,20,00,14,17.30
2015,09,20,00,15,17.30
2015,09,20,00,16,17.30
2015,09,20,00,17,17.30
2015,09,20,00,18,17.30
2015,09,20,00,19,17.30
2015,09,20,00,20,17.30
2015,09,20,00,21,17.30
2015,09,20,00,22,17.30
2015,09,20,00,23,17.30
2015,09,20,00,24,17.30
2015,09,20,00,25,17.30
2015,09,20,00,26,17.30
2015,09,20,00,27,17.30
2015,09,20,00,28,17.30
2015,09,20,00,29,17.30
2015,09,20,00,30,17.30
2015,09,20,00,31,17.30
2015,09,20,00,32,17.30
2015,09,20,00,33,17.30
2015,09,20,00,34,17.30
2015,09,20,00,35,17.30
2015,09,20,00,36,17.40
2015,09,20,00,37,17.50
2015,09,20,00,38,17.70
2015,09,20,00,39,17.90
2015,09,20,00,40,18.10
2015,09,20,00,41,18.20
2015,09,20,00,42,18.30
2015,09,20,00,43,18.30
2015,09,20,00,44,18.40
2015,09,20,00,45,18.40
2015,09,20,00,46,18.40
2015,09,20,00,47,18.40
2015,09,20,00,48,18.30
2015,09,20,00,49,18.30
2015,09,20,00,50,18.30
2015,09,20,00,51,18.30
2015,09,20,00,52,18.40
2015,09,20,00,53,18.50
2015,09,20,00,54,18.60
2015,09,20,00,55,18.60
2015,09,20,00,56,18.70
2015,09,20,00,57,18.70
2015,09,20,00,58,18.70
2015,09,20,00,59,18.70
2015,09,20,01,00,18.70
2015,09,20,01,01,18.60
2015,09,20,01,02,18.60
2015,09,20,01,03,18.60
2015,09,20,01,04,18.50
2015,09,20,01,05,18.50
2015,09,20,01,06,18.50
2015,09,20,01,07,18.40
2015,09,20,01,08,18.40
2015,09,20,01,09,18.40
2015,09,20,01,10,18.40
2015,09,20,01,11,18.50
2015,09,20,01,12,18.50
2015,09,20,01,13,18.50
2015,09,20,01,14,18.50
2015,09,20,01,15,18.50
2015,09,20,01,16,18.40
2015,09,20,01,17,18.40
2015,09,20,01,18,18.40
2015,09,20,01,19,18.40
2015,09,20,01,20,18.40
2015,09,20,01,21,18.40
2015,09,20,01,22,18.40
2015,09,20,01,23,18.40
2015,09,20,01,24,18.40
2015,09,20,01,25,18.40
2015,09,20,01,26,18.40
2015,09,20,01,27,18.30
2015,09,20,01,28,18.40
2015,09,20,01,29,18.40
2015,09,20,01,30,18.40
2015,09,20,01,31,18.40
2015,09,20,01,32,18.40
2015,09,20,01,33,18.40
2015,09,20,01,34,18.50
2015,09,20,01,35,18.50
2015,09,20,01,36,18.40
2015,09,20,01,37,18.50
2015,09,20,01,38,18.50
2015,09,20,01,39,18.50
2015,09,20,01,40,18.40
2015,09,20,01,41,18.40
2015,09,20,01,42,18.40
2015,09,20,01,43,18.40
2015,09,20,01,44,18.40
2015,09,20,01,45,18.40
2015,09,20,01,46,18.40
2015,09,20,01,47,18.40
2015,09,20,01,48,18.40
2015,09,20,01,49,18.40
2015,09,20,01,50,18.40
2015,09,20,01,51,18.40
2015,09,20,01,52,18.40
2015,09,20,01,53,18.40
2015,09,20,01,54,18.50
2015,09,20,01,55,18.50
2015,09,20,01,56,18.60
2015,09,20,01,57,18.60
2015,09,20,01,58,18.70
2015,09,20,01,59,18.70
2015,09,20,02,00,18.70
2015,09,20,02,01,18.70
2015,09,20,02,02,18.60
2015,09,20,02,03,18.50
2015,09,20,02,04,18.50
2015,09,20,02,05,18.40
2015,09,20,02,06,18.40
2015,09,20,02,07,18.40
2015,09,20,02,08,18.30
2015,09,20,02,09,18.30
2015,09,20,02,10,18.30
2015,09,20,02,11,18.20
2015,09,20,02,12,18.20
2015,09,20,02,13,18.10
2015,09,20,02,14,18.10
2015,09,20,02,15,18.10
2015,09,20,02,16,18.10
2015,09,20,02,17,18.10
2015,09,20,02,18,18.10
2015,09,20,02,19,18.20
2015,09,20,02,20,18.20
2015,09,20,02,21,18.20
2015,09,20,02,22,18.10
2015,09,20,02,23,18.10
2015,09,20,02,24,18.10
2015,09,20,02,25,18.10
2015,09,20,02,26,18.10
2015,09,20,02,27,18.10
2015,09,20,02,28,18.10
2015,09,20,02,29,18.10
2015,09,20,02,30,18.20
2015,09,20,02,31,18.20
2015,09,20,02,32,18.20
2015,09,20,02,33,18.20
2015,09,20,02,34,18.20
2015,09,20,02,35,18.20
2015,09,20,02,36,18.30
2015,09,20,02,37,18.30
2015,09,20,02,38,18.30
2015,09,20,02,39,18.30
2015,09,20,02,40,18.30
2015,09,20,02,41,18.30
2015,09,20,02,42,18.20
2015,09,20,02,43,18.20
2015,09,20,02,44,18.20
2015,09,20,02,45,18.20
2015,09,20,02,46,18.10
2015,09,20,02,47,18.10
2015,09,20,02,48,18.00
2015,09,20,02,49,17.90
2015,09,20,02,50,17.90
2015,09,20,02,51,17.90
2015,09,20,02,52,17.90
2015,09,20,02,53,17.80
2015,09,20,02,54,17.80
2015,09,20,02,55,17.80
2015,09,20,02,56,17.80
2015,09,20,02,57,17.70
2015,09,20,02,58,17.70
2015,09,20,02,59,17.70
2015,09,20,03,00,17.70
2015,09,20,03,01,17.70
2015,09,20,03,02,17.70
2015,09,20,03,03,17.60
2015,09,20,03,04,17.60
2015,09,20,03,05,17.60
2015,09,20,03,06,17.60
2015,09,20,03,07,17.60
2015,09,20,03,08,17.60
2015,09,20,03,09,17.60
2015,09,20,03,10,17.60
2015,09,20,03,11,17.60
2015,09,20,03,12,17.60
2015,09,20,03,13,17.60
2015,09,20,03,14,17.70
2015,09,20,03,15,17.70
2015,09,20,03,16,17.70
2015,09,20,03,17,17.70
2015,09,20,03,18,17.70
2015,09,20,03,19,17.70
2015,09,20,03,20,17.70
2015,09,20,03,21,17.70
2015,09,20,03,22,17.70
2015,09,20,03,23,17.70
2015,09,20,03,24,17.60
2015,09,20,03,25,17.60
2015,09,20,03,26,17.60
2015,09,20,03,27,17.60
2015,09,20,03,28,17.60
2015,09,20,03,29,17.60
2015,09,20,03,30,17.60
2015,09,20,03,31,17.50
2015,09,20,03,32,17.50
2015,09,20,03,33,17.50
2015,09,20,03,34,17.50
2015,09,20,03,35,17.40
2015,09,20,03,36,17.40
2015,09,20,03,37,17.40
2015,09,20,03,38,17.40
2015,09,20,03,39,17.40
2015,09,20,03,40,17.40
2015,09,20,03,41,17.40
2015,09,20,03,42,17.40
2015,09,20,03,43,17.40
2015,09,20,03,44,17.30
2015,09,20,03,45,17.30
2015,09,20,03,46,17.30
2015,09,20,03,47,17.30
2015,09,20,03,48,17.20
2015,09,20,03,49,17.20
2015,09,20,03,50,17.10
2015,09,20,03,51,17.00
2015,09,20,03,52,16.90
2015,09,20,03,53,16.90
2015,09,20,03,54,16.80
2015,09,20,03,55,16.80
2015,09,20,03,56,16.70
2015,09,20,03,57,16.70
2015,09,20,03,58,16.60
2015,09,20,03,59,16.50
2015,09,20,04,00,16.40
2015,09,20,04,01,16.40
2015,09,20,04,02,16.30
2015,09,20,04,03,16.30
2015,09,20,04,04,16.30
2015,09,20,04,05,16.30
2015,09,20,04,06,16.20
2015,09,20,04,07,16.20
2015,09,20,04,08,16.20
2015,09,20,04,09,16.20
2015,09,20,04,10,16.20
2015,09,20,04,11,16.20
2015,09,20,04,12,16.20
2015,09,20,04,13,16.20
2015,09,20,04,14,16.20
2015,09,20,04,15,16.20
2015,09,20,04,16,16.20
2015,09,20,04,17,16.20
2015,09,20,04,18,16.20
2015,09,20,04,19,16.30
2015,09,20,04,20,16.30
2015,09,20,04,21,16.30
2015,09,20,04,22,16.30
2015,09,20,04,23,16.30
2015,09,20,04,24,16.30
2015,09,20,04,25,16.30
2015,09,20,04,26,16.40
2015,09,20,04,27,16.50
2015,09,20,04,28,16.50
2015,09,20,04,29,16.60
2015,09,20,04,30,16.70
2015,09,20,04,31,16.70
2015,09,20,04,32,16.70
2015,09,20,04,33,16.80
2015,09,20,04,34,16.80
2015,09,20,04,35,16.80
2015,09,20,04,36,16.80
2015,09,20,04,37,16.90
2015,09,20,04,38,16.90
2015,09,20,04,39,16.90
2015,09,20,04,40,16.90
2015,09,20,04,41,16.90
2015,09,20,04,42,16.90
2015,09,20,04,43,16.90
2015,09,20,04,44,16.90
2015,09,20,04,45,16.90
2015,09,20,04,46,17.00
2015,09,20,04,47,17.00
2015,09,20,04,48,17.10
2015,09,20,04,49,17.10
2015,09,20,04,50,17.20
2015,09,20,04,51,17.20
2015,09,20,04,52,17.30
2015,09,20,04,53,17.30
2015,09,20,04,54,17.30
2015,09,20,04,55,17.30
2015,09,20,04,56,17.40
2015,09,20,04,57,17.40
2015,09,20,04,58,17.40
2015,09,20,04,59,17.40
2015,09,20,05,00,17.40
2015,09,20,05,01,17.30
2015,09,20,05,02,17.30
2015,09,20,05,03,17.30
2015,09,20,05,04,17.30
2015,09,20,05,05,17.30
2015,09,20,05,06,17.30
2015,09,20,05,07,17.30
2015,09,20,05,08,17.30
2015,09,20,05,09,17.30
2015,09,20,05,10,17.30
2015,09,20,05,11,17.40
2015,09,20,05,12,17.40
2015,09,20,05,13,17.40
2015,09,20,05,14,17.40
2015,09,20,05,15,17.40
2015,09,20,05,16,17.40
2015,09,20,05,17,17.40
2015,09,20,05,18,17.40
2015,09,20,05,19,17.40
2015,09,20,05,20,17.40
2015,09,20,05,21,17.40
2015,09,20,05,22,17.40
2015,09,20,05,23,17.40
2015,09,20,05,24,17.40
2015,09,20,05,25,17.40
2015,09,20,05,26,17.40
2015,09,20,05,27,17.50
2015,09,20,05,28,17.50
2015,09,20,05,29,17.50
2015,09,20,05,30,17.50
2015,09,20,05,31,17.50
2015,09,20,05,32,17.50
2015,09,20,05,33,17.60
2015,09,20,05,34,17.60
2015,09,20,05,35,17.60
2015,09,20,05,36,17.50
2015,09,20,05,37,17.50
2015,09,20,05,38,17.50
2015,09,20,05,39,17.50
2015,09,20,05,40,17.50
2015,09,20,05,41,17.50
2015,09,20,05,42,17.50
2015,09,20,05,43,17.50
2015,09,20,05,44,17.40
2015,09,20,05,45,17.40
2015,09,20,05,46,17.40
2015,09,20,05,47,17.40
2015,09,20,05,48,17.40
2015,09,20,05,49,17.40
2015,09,20,05,50,17.40
2015,09,20,05,51,17.40
2015,09,20,05,52,17.40
2015,09,20,05,53,17.40
2015,09,20,05,54,17.40
2015,09,20,05,55,17.40
2015,09,20,05,56,17.40
2015,09,20,05,57,17.40
2015,09,20,05,58,17.40
2015,09,20,05,59,17.40
2015,09,20,06,00,17.40
2015,09,20,06,01,17.40
2015,09,20,06,02,17.40
2015,09,20,06,03,17.40
2015,09,20,06,04,17.40
2015,09,20,06,05,17.40
2015,09,20,06,06,17.40
2015,09,20,06,07,17.30
2015,09,20,06,08,17.30
2015,09,20,06,09,17.30
2015,09,20,06,10,17.30
2015,09,20,06,11,17.30
2015,09,20,06,12,17.30
2015,09,20,06,13,17.30
2015,09,20,06,14,17.30
2015,09,20,06,15,17.30
2015,09,20,06,16,17.30
2015,09,20,06,17,17.30
2015,09,20,06,18,17.20
2015,09,20,06,19,17.20
2015,09,20,06,20,17.20
2015,09,20,06,21,17.20
2015,09,20,06,22,17.20
2015,09,20,06,23,17.20
2015,09,20,06,24,17.20
2015,09,20,06,25,17.10
2015,09,20,06,26,17.10
2015,09,20,06,27,17.10
2015,09,20,06,28,17.10
2015,09,20,06,29,17.00
2015,09,20,06,30,17.00
2015,09,20,06,31,17.00
2015,09,20,06,32,17.00
2015,09,20,06,33,16.90
2015,09,20,06,34,16.90
2015,09,20,06,35,16.90
2015,09,20,06,36,16.90
2015,09,20,06,37,16.90
2015,09,20,06,38,16.90
2015,09,20,06,39,16.80
2015,09,20,06,40,16.80
2015,09,20,06,41,16.80
2015,09,20,06,42,16.80
2015,09,20,06,43,16.80
2015,09,20,06,44,16.70
2015,09,20,06,45,16.70
2015,09,20,06,46,16.70
2015,09,20,06,47,16.70
2015,09,20,06,48,16.60
2015,09,20,06,49,16.60
2015,09,20,06,50,16.60
2015,09,20,06,51,16.60
2015,09,20,06,52,16.60
2015,09,20,06,53,16.60
2015,09,20,06,54,16.60
2015,09,20,06,55,16.60
2015,09,20,06,56,16.60
2015,09,20,06,57,16.60
2015,09,20,06,58,16.60
2015,09,20,06,59,16.60
2015,09,20,07,00,16.60
2015,09,20,07,01,16.60
2015,09,20,07,02,16.60
2015,09,20,07,03,16.60
2015,09,20,07,04,16.60
2015,09,20,07,05,16.60
2015,09,20,07,06,16.60
2015,09,20,07,07,16.60
2015,09,20,07,08,16.60
2015,09,20,07,09,16.60
2015,09,20,07,10,16.60
2015,09,20,07,11,16.60
2015,09,20,07,12,16.50
2015,09,20,07,13,16.50
2015,09,20,07,14,16.40
2015,09,20,07,15,16.40
2015,09,20,07,16,16.40
2015,09,20,07,17,16.50
2015,09,20,07,18,16.50
2015,09,20,07,19,16.60
2015,09,20,07,20,16.60
2015,09,20,07,21,16.70
2015,09,20,07,22,16.80
2015,09,20,07,23,16.90
2015,09,20,07,24,17.10
2015,09,20,07,25,17.20
2015,09,20,07,26,17.30
2015,09,20,07,27,17.30
2015,09,20,07,28,17.40
2015,09,20,07,29,17.40
2015,09,20,07,30,17.40
2015,09,20,07,31,17.50
2015,09,20,07,32,17.50
2015,09,20,07,33,17.50
2015,09,20,07,34,17.50
2015,09,20,07,35,17.50
2015,09,20,07,36,17.50
2015,09,20,07,37,17.50
2015,09,20,07,38,17.50
2015,09,20,07,39,17.50
2015,09,20,07,40,17.60
2015,09,20,07,41,17.60
2015,09,20,07,42,17.60
2015,09,20,07,43,17.60
2015,09,20,07,44,17.60
2015,09,20,07,45,17.60
2015,09,20,07,46,17.60
2015,09,20,07,47,17.60
2015,09,20,07,48,17.50
2015,09,20,07,49,17.50
2015,09,20,07,50,17.50
2015,09,20,07,51,17.50
2015,09,20,07,52,17.60
2015,09,20,07,53,17.60
2015,09,20,07,54,17.60
2015,09,20,07,55,17.60
2015,09,20,07,56,17.60
2015,09,20,07,57,17.60
2015,09,20,07,58,17.60
2015,09,20,07,59,17.60
2015,09,20,08,00,17.60
2015,09,20,08,01,17.60
2015,09,20,08,02,17.60
2015,09,20,08,03,17.60
2015,09,20,08,04,17.60
2015,09,20,08,05,17.60
2015,09,20,08,06,17.50
2015,09,20,08,07,17.50
2015,09,20,08,08,17.50
2015,09,20,08,09,17.50
2015,09,20,08,10,17.40
2015,09,20,08,11,17.40
2015,09,20,08,12,17.40
2015,09,20,08,13,17.40
2015,09,20,08,14,17.40
2015,09,20,08,15,17.40
2015,09,20,08,16,17.40
2015,09,20,08,17,17.40
2015,09,20,08,18,17.40
2015,09,20,08,19,17.40
2015,09,20,08,20,17.40
2015,09,20,08,21,17.40
2015,09,20,08,22,17.40
2015,09,20,08,23,17.40
2015,09,20,08,24,17.40
2015,09,20,08,25,17.40
2015,09,20,08,26,17.30
2015,09,20,08,27,17.30
2015,09,20,08,28,17.30
2015,09,20,08,29,17.30
2015,09,20,08,30,17.30
2015,09,20,08,31,17.30
2015,09,20,08,32,17.20
2015,09,20,08,33,17.10
2015,09,20,08,34,17.10
2015,09,20,08,35,17.10
2015,09,20,08,36,17.10
2015,09,20,08,37,17.10
2015,09,20,08,38,17.20
2015,09,20,08,39,17.20
2015,09,20,08,40,17.30
2015,09,20,08,41,17.30
2015,09,20,08,42,17.30
2015,09,20,08,43,17.40
2015,09,20,08,44,17.40
2015,09,20,08,45,17.40
2015,09,20,08,46,17.50
2015,09,20,08,47,17.50
2015,09,20,08,48,17.50
2015,09,20,08,49,17.50
2015,09,20,08,50,17.50
2015,09,20,08,51,17.50
2015,09,20,08,52,17.50
2015,09,20,08,53,17.40
2015,09,20,08,54,17.30
2015,09,20,08,55,17.20
2015,09,20,08,56,17.10
2015,09,20,08,57,17.10
2015,09,20,08,58,17.00
2015,09,20,08,59,17.00
2015,09,20,09,00,17.00
2015,09,20,09,01,17.00
2015,09,20,09,02,17.00
2015,09,20,09,03,16.90
2015,09,20,09,04,16.90
2015,09,20,09,05,16.90
2015,09,20,09,06,16.80
2015,09,20,09,07,16.80
2015,09,20,09,08,16.80
2015,09,20,09,09,16.80
2015,09,20,09,10,16.80
2015,09,20,09,11,16.70
2015,09,20,09,12,16.70
2015,09,20,09,13,16.70
2015,09,20,09,14,16.70
2015,09,20,09,15,16.80
2015,09,20,09,16,16.80
2015,09,20,09,17,16.90
2015,09,20,09,18,16.90
2015,09,20,09,19,16.90
2015,09,20,09,20,16.90
2015,09,20,09,21,17.00
2015,09,20,09,22,17.00
2015,09,20,09,23,16.90
2015,09,20,09,24,16.90
2015,09,20,09,25,16.90
2015,09,20,09,26,16.90
2015,09,20,09,27,16.90
2015,09,20,09,28,16.90
2015,09,20,09,29,16.90
2015,09,20,09,30,16.90
2015,09,20,09,31,16.90
2015,09,20,09,32,17.00
2015,09,20,09,33,17.00
2015,09,20,09,34,17.10
2015,09,20,09,35,17.10
2015,09,20,09,36,17.20
2015,09,20,09,37,17.30
2015,09,20,09,38,17.40
2015,09,20,09,39,17.50
2015,09,20,09,40,17.60
2015,09,20,09,41,17.70
2015,09,20,09,42,17.80
2015,09,20,09,43,17.90
2015,09,20,09,44,17.90
2015,09,20,09,45,17.90
2015,09,20,09,46,17.90
2015,09,20,09,47,17.90
2015,09,20,09,48,18.00
2015,09,20,09,49,18.10
2015,09,20,09,50,18.20
2015,09,20,09,51,18.20
2015,09,20,09,52,18.30
2015,09,20,09,53,18.30
2015,09,20,09,54,18.40
2015,09,20,09,55,18.40
2015,09,20,09,56,18.50
2015,09,20,09,57,18.50
2015,09,20,09,58,18.60
2015,09,20,09,59,18.60
2015,09,20,10,00,18.60
2015,09,20,10,01,18.70
2015,09,20,10,02,18.70
2015,09,20,10,03,18.70
2015,09,20,10,04,18.70
2015,09,20,10,05,18.70
2015,09,20,10,06,18.70
2015,09,20,10,07,18.70
2015,09,20,10,08,18.80
2015,09,20,10,09,18.80
2015,09,20,10,10,18.80
2015,09,20,10,11,18.90
2015,09,20,10,12,18.90
2015,09,20,10,13,18.90
2015,09,20,10,14,19.00
2015,09,20,10,15,19.00
2015,09,20,10,16,19.10
2015,09,20,10,17,19.10
2015,09,20,10,18,19.10
2015,09,20,10,19,19.10
2015,09,20,10,20,19.10
2015,09,20,10,21,19.00
2015,09,20,10,22,19.00
2015,09,20,10,23,19.00
2015,09,20,10,24,19.10
2015,09,20,10,25,19.10
2015,09,20,10,26,19.10
2015,09,20,10,27,19.00
2015,09,20,10,28,19.00
2015,09,20,10,29,19.00
2015,09,20,10,30,19.00
2015,09,20,10,31,19.00
2015,09,20,10,32,19.00
2015,09,20,10,33,19.10
2015,09,20,10,34,19.10
2015,09,20,10,35,19.20
2015,09,20,10,36,19.20
2015,09,20,10,37,19.20
2015,09,20,10,38,19.30
2015,09,20,10,39,19.30
2015,09,20,10,40,19.30
2015,09,20,10,41,19.30
2015,09,20,10,42,19.30
2015,09,20,10,43,19.30
2015,09,20,10,44,19.30
2015,09,20,10,45,19.30
2015,09,20,10,46,19.30
2015,09,20,10,47,19.30
2015,09,20,10,48,19.30
2015,09,20,10,49,19.30
2015,09,20,10,50,19.40
2015,09,20,10,51,19.40
2015,09,20,10,52,19.40
2015,09,20,10,53,19.40
2015,09,20,10,54,19.40
2015,09,20,10,55,19.40
2015,09,20,10,56,19.40
2015,09,20,10,57,19.50
2015,09,20,10,58,19.50
2015,09,20,10,59,19.60
2015,09,20,11,00,19.60
2015,09,20,11,01,19.60
2015,09,20,11,02,19.60
2015,09,20,11,03,19.60
2015,09,20,11,04,19.60
2015,09,20,11,05,19.60
2015,09,20,11,06,19.60
2015,09,20,11,07,19.60
2015,09,20,11,08,19.60
2015,09,20,11,09,19.70
2015,09,20,11,10,19.70
2015,09,20,11,11,19.80
2015,09,20,11,12,19.80
2015,09,20,11,13,19.90
2015,09,20,11,14,19.90
2015,09,20,11,15,19.90
2015,09,20,11,16,19.90
2015,09,20,11,17,20.00
2015,09,20,11,18,20.00
2015,09,20,11,19,20.10
2015,09,20,11,20,20.10
2015,09,20,11,21,20.20
2015,09,20,11,22,20.20
2015,09,20,11,23,20.20
2015,09,20,11,24,20.20
2015,09,20,11,25,20.30
2015,09,20,11,26,20.30
2015,09,20,11,27,20.40
2015,09,20,11,28,20.60
2015,09,20,11,29,20.70
2015,09,20,11,30,20.80
2015,09,20,11,31,20.80
2015,09,20,11,32,20.80
2015,09,20,11,33,20.80
2015,09,20,11,34,20.80
2015,09,20,11,35,20.80
2015,09,20,11,36,20.80
2015,09,20,11,37,20.80
2015,09,20,11,38,20.80
2015,09,20,11,39,20.80
2015,09,20,11,40,20.80
2015,09,20,11,41,20.70
2015,09,20,11,42,20.80
2015,09,20,11,43,20.80
2015,09,20,11,44,20.90
2015,09,20,11,45,20.90
2015,09,20,11,46,21.00
2015,09,20,11,47,21.10
2015,09,20,11,48,21.20
2015,09,20,11,49,21.30
2015,09,20,11,50,21.50
2015,09,20,11,51,21.60
2015,09,20,11,52,21.60
2015,09,20,11,53,21.70
2015,09,20,11,54,21.80
2015,09,20,11,55,21.80
2015,09,20,11,56,21.90
2015,09,20,11,57,21.90
2015,09,20,11,58,22.00
2015,09,20,11,59,22.10
2015,09,20,12,00,22.30
2015,09,20,12,01,22.50
2015,09,20,12,02,22.70
2015,09,20,12,03,22.90
2015,09,20,12,04,23.10
2015,09,20,12,05,23.20
2015,09,20,12,06,23.30
2015,09,20,12,07,23.40
2015,09,20,12,08,23.40
2015,09,20,12,09,23.50
2015,09,20,12,10,23.50
2015,09,20,12,11,23.60
2015,09,20,12,12,23.70
2015,09,20,12,13,23.80
2015,09,20,12,14,24.00
2015,09,20,12,15,24.10
2015,09,20,12,16,24.20
2015,09,20,12,17,24.20
2015,09,20,12,18,24.20
2015,09,20,12,19,24.20
2015,09,20,12,20,24.30
2015,09,20,12,21,24.30
2015,09,20,12,22,24.30
2015,09,20,12,23,24.30
2015,09,20,12,24,24.30
2015,09,20,12,25,24.40
2015,09,20,12,26,24.40
2015,09,20,12,27,24.40
2015,09,20,12,28,24.40
2015,09,20,12,29,24.40
2015,09,20,12,30,24.50
2015,09,20,12,31,24.50
2015,09,20,12,32,24.50
2015,09,20,12,33,24.50
2015,09,20,12,34,24.50
2015,09,20,12,35,24.50
2015,09,20,12,36,24.40
2015,09,20,12,37,24.40
2015,09,20,12,38,24.40
2015,09,20,12,39,24.40
2015,09,20,12,40,24.40
2015,09,20,12,41,24.40
2015,09,20,12,42,24.40
2015,09,20,12,43,24.30
2015,09,20,12,44,24.30
2015,09,20,12,45,24.30
2015,09,20,12,46,24.30
2015,09,20,12,47,24.20
2015,09,20,12,48,24.20
2015,09,20,12,49,24.20
2015,09,20,12,50,24.30
2015,09,20,12,51,24.30
2015,09,20,12,52,24.30
2015,09,20,12,53,24.40
2015,09,20,12,54,24.40
2015,09,20,12,55,24.30
2015,09,20,12,56,24.20
2015,09,20,12,57,24.00
2015,09,20,12,58,24.00
2015,09,20,12,59,24.00
2015,09,20,13,00,24.00
2015,09,20,13,01,24.20
2015,09,20,13,02,24.30
2015,09,20,13,03,24.30
2015,09,20,13,04,24.30
2015,09,20,13,05,24.30
2015,09,20,13,06,24.30
2015,09,20,13,07,24.20
2015,09,20,13,08,24.20
2015,09,20,13,09,24.10
2015,09,20,13,10,23.90
2015,09,20,13,11,23.70
2015,09,20,13,12,23.60
2015,09,20,13,13,23.40
2015,09,20,13,14,23.20
2015,09,20,13,15,23.00
2015,09,20,13,16,22.90
2015,09,20,13,17,22.80
2015,09,20,13,18,22.60
2015,09,20,13,19,22.50
2015,09,20,13,20,22.40
2015,09,20,13,21,22.30
2015,09,20,13,22,22.20
2015,09,20,13,23,22.00
2015,09,20,13,24,21.80
2015,09,20,13,25,21.70
2015,09,20,13,26,21.60
2015,09,20,13,27,21.30
2015,09,20,13,28,21.00
2015,09,20,13,29,20.70
2015,09,20,13,30,20.40
2015,09,20,13,31,20.20
2015,09,20,13,32,19.90
2015,09,20,13,33,19.50
2015,09,20,13,34,19.30
2015,09,20,13,35,19.00
2015,09,20,13,36,18.70
2015,09,20,13,37,18.30
2015,09,20,13,38,18.00
2015,09,20,13,39,17.80
2015,09,20,13,40,17.60
2015,09,20,13,41,17.40
2015,09,20,13,42,17.10
2015,09,20,13,43,16.90
2015,09,20,13,44,16.70
2015,09,20,13,45,16.40
2015,09,20,13,46,16.10
2015,09,20,13,47,15.90
2015,09,20,13,48,15.70
2015,09,20,13,49,15.50
2015,09,20,13,50,15.40
2015,09,20,13,51,15.20
2015,09,20,13,52,15.10
2015,09,20,13,53,14.90
2015,09,20,13,54,14.90
2015,09,20,13,55,14.70
2015,09,20,13,56,14.70
2015,09,20,13,57,14.70
2015,09,20,13,58,14.70
2015,09,20,13,59,14.70
2015,09,20,14,00,14.60
2015,09,20,14,01,14.60
2015,09,20,14,02,14.50
2015,09,20,14,03,14.40
2015,09,20,14,04,14.30
2015,09,20,14,05,14.20
2015,09,20,14,06,14.20
2015,09,20,14,07,14.10
2015,09,20,14,08,14.00
2015,09,20,14,09,13.90
2015,09,20,14,10,13.90
2015,09,20,14,11,13.80
2015,09,20,14,12,13.70
2015,09,20,14,13,13.70
2015,09,20,14,14,13.60
2015,09,20,14,15,13.60
2015,09,20,14,16,13.50
2015,09,20,14,17,13.50
2015,09,20,14,18,13.50
2015,09,20,14,19,13.60
2015,09,20,14,20,13.60
2015,09,20,14,21,13.60
2015,09,20,14,22,13.60
2015,09,20,14,23,13.50
2015,09,20,14,24,13.50
2015,09,20,14,25,13.50
2015,09,20,14,26,13.50
2015,09,20,14,27,13.40
2015,09,20,14,28,13.40
2015,09,20,14,29,13.40
2015,09,20,14,30,13.30
2015,09,20,14,31,13.30
2015,09,20,14,32,13.30
2015,09,20,14,33,13.20
2015,09,20,14,34,13.30
2015,09,20,14,35,13.30
2015,09,20,14,36,13.30
2015,09,20,14,37,13.30
2015,09,20,14,38,13.30
2015,09,20,14,39,13.40
2015,09,20,14,40,13.40
2015,09,20,14,41,13.40
2015,09,20,14,42,13.40
2015,09,20,14,43,13.40
2015,09,20,14,44,13.40
2015,09,20,14,45,13.50
2015,09,20,14,46,13.50
2015,09,20,14,47,13.50
2015,09,20,14,48,13.50
2015,09,20,14,49,13.50
2015,09,20,14,50,13.60
2015,09,20,14,51,13.60
2015,09,20,14,52,13.70
2015,09,20,14,53,13.70
2015,09,20,14,54,13.70
2015,09,20,14,55,13.70
2015,09,20,14,56,13.70
2015,09,20,14,57,13.70
2015,09,20,14,58,13.80
2015,09,20,14,59,13.80
2015,09,20,15,00,13.80
2015,09,20,15,01,13.80
2015,09,20,15,02,13.80
2015,09,20,15,03,13.80
2015,09,20,15,04,13.90
2015,09,20,15,05,13.90
2015,09,20,15,06,13.90
2015,09,20,15,07,13.90
2015,09,20,15,08,13.90
2015,09,20,15,09,13.90
2015,09,20,15,10,14.00
2015,09,20,15,11,14.00
2015,09,20,15,12,14.10
2015,09,20,15,13,14.10
2015,09,20,15,14,14.00
2015,09,20,15,15,14.00
2015,09,20,15,16,14.00
2015,09,20,15,17,14.00
2015,09,20,15,18,14.00
2015,09,20,15,19,13.90
2015,09,20,15,20,13.80
2015,09,20,15,21,13.80
2015,09,20,15,22,13.80
2015,09,20,15,23,13.70
2015,09,20,15,24,13.70
2015,09,20,15,25,13.70
2015,09,20,15,26,13.70
2015,09,20,15,27,13.70
2015,09,20,15,28,13.60
2015,09,20,15,29,13.60
2015,09,20,15,30,13.60
2015,09,20,15,31,13.60
2015,09,20,15,32,13.70
2015,09,20,15,33,13.70
2015,09,20,15,34,13.60
2015,09,20,15,35,13.60
2015,09,20,15,36,13.60
2015,09,20,15,37,13.70
2015,09,20,15,38,13.70
2015,09,20,15,39,13.70
2015,09,20,15,40,13.70
2015,09,20,15,41,13.80
2015,09,20,15,42,13.80
2015,09,20,15,43,13.80
2015,09,20,15,44,13.80
2015,09,20,15,45,13.90
2015,09,20,15,46,13.90
2015,09,20,15,47,13.90
2015,09,20,15,48,13.90
2015,09,20,15,49,13.90
2015,09,20,15,50,13.90
2015,09,20,15,51,13.90
2015,09,20,15,52,13.90
2015,09,20,15,53,13.80
2015,09,20,15,54,13.80
2015,09,20,15,55,13.80
2015,09,20,15,56,13.80
2015,09,20,15,57,13.90
2015,09,20,15,58,13.90
2015,09,20,15,59,14.00
2015,09,20,16,00,14.10
2015,09,20,16,01,14.10
2015,09,20,16,02,14.20
2015,09,20,16,03,14.20
2015,09,20,16,04,14.30
2015,09,20,16,05,14.30
2015,09,20,16,06,14.30
2015,09,20,16,07,14.30
2015,09,20,16,08,14.40
2015,09,20,16,09,14.40
2015,09,20,16,10,14.40
2015,09,20,16,11,14.40
2015,09,20,16,12,14.40
2015,09,20,16,13,14.40
2015,09,20,16,14,14.50
2015,09,20,16,15,14.50
2015,09,20,16,16,14.50
2015,09,20,16,17,14.50
2015,09,20,16,18,14.50
2015,09,20,16,19,14.60
2015,09,20,16,20,14.60
2015,09,20,16,21,14.60
2015,09,20,16,22,14.60
2015,09,20,16,23,14.60
2015,09,20,16,24,14.60
2015,09,20,16,25,14.70
2015,09,20,16,26,14.70
2015,09,20,16,27,14.70
2015,09,20,16,28,14.70
2015,09,20,16,29,14.80
2015,09,20,16,30,14.80
2015,09,20,16,31,14.90
2015,09,20,16,32,14.90
2015,09,20,16,33,14.90
2015,09,20,16,34,14.90
2015,09,20,16,35,14.90
2015,09,20,16,36,14.90
2015,09,20,16,37,14.90
2015,09,20,16,38,14.90
2015,09,20,16,39,15.00
2015,09,20,16,40,15.00
2015,09,20,16,41,15.00
2015,09,20,16,42,15.10
2015,09,20,16,43,15.10
2015,09,20,16,44,15.10
2015,09,20,16,45,15.10
2015,09,20,16,46,15.10
2015,09,20,16,47,15.20
2015,09,20,16,48,15.20
2015,09,20,16,49,15.20
2015,09,20,16,50,15.20
2015,09,20,16,51,15.10
2015,09,20,16,52,15.20
2015,09,20,16,53,15.10
2015,09,20,16,54,15.10
2015,09,20,16,55,15.10
2015,09,20,16,56,15.10
2015,09,20,16,57,15.10
2015,09,20,16,58,15.10
2015,09,20,16,59,15.10
2015,09,20,17,00,15.10
2015,09,20,17,01,15.10
2015,09,20,17,02,15.10
2015,09,20,17,03,15.10
2015,09,20,17,04,15.00
2015,09,20,17,05,15.00
2015,09,20,17,06,14.90
2015,09,20,17,07,14.90
2015,09,20,17,08,14.90
2015,09,20,17,09,14.90
2015,09,20,17,10,14.90
2015,09,20,17,11,14.80
2015,09,20,17,12,14.80
2015,09,20,17,13,14.80
2015,09,20,17,14,14.80
2015,09,20,17,15,14.80
2015,09,20,17,16,14.80
2015,09,20,17,17,14.80
2015,09,20,17,18,14.80
2015,09,20,17,19,14.80